EDT,Max TemperatureF,Mean TemperatureF,Min TemperatureF,Max Dew PointF,MeanDew PointF,Min DewpointF,Max Humidity, Mean Humidity, Min Humidity, Max Sea Level PressureIn, Mean Sea Level PressureIn, Min Sea Level PressureIn, Max VisibilityMiles, Mean VisibilityMiles, Min VisibilityMiles, Max Wind SpeedMPH, Mean Wind SpeedMPH, Max Gust SpeedMPH,PrecipitationIn, CloudCover, Events, WindDirDegrees
2011-9-1,77,71,65,63,62,57,93,77,60,30.03,29.98,29.89,10,9,7,15,6,22,0.00,5,,121
2011-9-2,85,73,60,72,65,58,93,79,65,29.90,29.79,29.69,10,6,2,17,7,25,0.31,5,Rain-Thunderstorm,258
2011-9-3,72,65,58,63,60,56,97,83,68,29.93,29.87,29.72,10,7,0,9,4,13,0.55,6,Fog-Rain,129
2011-9-4,70,59,48,63,56,39,93,80,66,30.01,29.77,29.66,10,9,1,18,9,26,0.17,7,Rain,310
2011-9-5,59,52,45,43,38,34,80,64,47,30.18,30.11,30.03,10,10,10,16,8,23,0.00,3,,344
2011-9-6,66,53,40,44,40,35,89,63,37,30.28,30.24,30.20,10,10,10,7,2,13,0.00,0,,21
2011-9-7,70,57,44,53,46,41,93,70,47,30.27,30.24,30.19,10,8,0,13,4,18,0.00,1,Fog,310
2011-9-8,76,65,53,59,54,49,86,70,53,30.21,30.14,30.06,10,10,10,12,4,16,0.00,0,,332
2011-9-9,79,66,53,63,56,50,93,74,54,30.06,30.00,29.95,10,9,2,10,3,14,0.00,0,,302
2011-9-10,76,66,56,54,50,46,86,64,41,30.09,30.04,30.01,10,10,10,9,4,14,0.00,0,,110
2011-9-11,81,68,55,64,58,52,100,76,51,30.00,29.91,29.82,10,8,0,14,5,22,0.15,3,Fog-Rain,172
2011-9-12,79,70,60,64,60,57,100,79,58,29.88,29.79,29.52,10,6,0,24,5,32,0.34,4,Fog,146
2011-9-13,63,54,44,59,48,39,89,74,59,29.89,29.74,29.52,10,9,2,23,10,32,T,7,Rain-Thunderstorm,305
2011-9-14,55,50,44,49,38,31,89,69,48,30.08,29.95,29.80,10,10,9,24,12,35,0.10,5,Rain,296
2011-9-15,54,48,42,40,36,32,89,70,50,30.32,30.21,30.08,10,10,4,20,9,28,0.15,4,Rain,318
2011-9-16,59,50,40,41,37,33,92,66,40,30.40,30.36,30.32,10,10,10,9,3,15,T,4,Rain,238
2011-9-17,63,52,40,47,41,37,93,68,43,30.43,30.39,30.36,10,9,2,10,5,15,0.00,1,,113
2011-9-18,65,55,45,51,47,41,93,68,43,30.38,30.28,30.09,10,10,6,20,8,28,0.00,1,,107
2011-9-19,60,56,52,56,54,49,93,84,75,30.06,29.87,29.80,10,7,2,16,7,24,0.96,7,Rain,248
2011-9-20,70,57,43,54,47,41,93,69,45,30.05,29.99,29.95,10,5,0,10,3,15,0.14,3,Fog-Rain,142
2011-9-21,67,61,54,58,54,48,93,75,56,29.97,29.83,29.74,10,7,1,20,8,26,0.67,7,Rain,159
2011-9-22,61,56,50,52,49,47,93,78,62,30.10,29.98,29.82,10,9,2,10,5,14,0.05,7,Rain,272
2011-9-23,62,55,48,51,47,42,93,72,51,30.14,30.09,30.02,10,7,0,9,3,13,0.25,7,Fog-Rain,282
2011-9-24,65,59,53,55,52,51,93,83,72,30.12,30.03,29.97,10,9,4,13,5,18,0.01,6,Rain,80
2011-9-25,70,62,53,52,51,47,93,70,47,30.19,30.11,30.02,10,10,7,8,3,13,0.00,5,,97
2011-9-26,72,64,56,58,54,48,86,72,57,30.01,29.91,29.83,10,10,10,15,6,24,0.03,4,Rain,82
2011-9-27,64,60,55,58,57,54,93,89,84,29.89,29.85,29.81,10,7,0,10,5,15,0.47,7,Fog-Rain,93
2011-9-28,70,61,51,54,52,48,100,74,47,29.89,29.84,29.76,10,5,0,7,2,9,0.00,2,Fog,85
2011-9-29,65,57,48,55,51,45,96,82,67,29.75,29.59,29.44,10,6,0,18,5,33,0.01,4,Fog-Rain,97
2011-9-30,50,44,38,41,34,28,85,72,58,30.18,29.86,29.54,10,9,4,21,11,32,0.36,6,Rain,1